Home   Weather   Danmarkshavn   Past weeks

Flag for Greenland Past Weather in Danmarkshavn, Greenland — Yesterday and Last 2 Weeks

10 °F

Snow flurries. Overcast.

Feels Like: -4 °F
Forecast: 1 / 12 °F
Wind: 10 mph from Northwest

Location: Danmarkshavn

Current Time: Oct 21, 2016 at 1:06:40 PM

Latest Report: Oct 21, 2016 at 12:00 PM

Visibility: 31 mi

Pressure: 29.81 "Hg

Humidity: 75%

Dew Point: 3 °F

Location of DanmarkshavnLocation

Past Weather in Danmarkshavn — Graph


Danmarkshavn Temperature Yesterday

Maximum temperature yesterday: 15 °F (at 3:00 PM)
Minimum temperature yesterday: 7 °F (at 8:00 PM)
Average temperature yesterday: 12 °F

High & Low Weather Summary for the Past Weeks

High36 °F (Oct 7, 4:00 PM)96% (Oct 9, 2:00 AM)30.30 "Hg (Oct 9, 2:00 AM)
Low7 °F (Oct 20, 8:00 PM)33% (Oct 10, 4:00 PM)29.44 "Hg (Oct 20, 4:00 PM)
Average20 °F68%29.93 "Hg
* Reported Oct 6 11:00 AM — Oct 21 11:00 AM, Danmarkshavn, Weather by CustomWeather, © 2016

Note: Actual official high and low records may vary slightly from our data, if they occured in-between our weather recording intervals... More about our weather records


Danmarkshavn Weather History for the Previous 24 Hours

Scroll right to see more
Time TempWeatherWind HumidityBarometerVisibility
11:00 AM
Fri, Oct 21
12 °FOvercast.13 mph81%29.76 "Hg31 mi
10:00 AM14 °FLow clouds.10 mph87%29.72 "Hg2 mi
9:00 AM14 °FLow clouds.3 mph87%29.68 "Hg2 mi
8:00 AM14 °FLow clouds.No wind82%29.65 "Hg4 mi
7:00 AM13 °FSnow flurries. Overcast.3 mph82%29.61 "Hg19 mi
6:00 AM12 °FLight snow. Passing clouds.1 mph83%29.59 "Hg15 mi
5:00 AM14 °FSnow flurries. Low clouds.5 mph82%29.57 "Hg31 mi
4:00 AM13 °FSnow flurries. Overcast.2 mph79%29.57 "Hg25 mi
3:00 AM11 °FSnow flurries. Overcast.No wind74%29.56 "Hg16 mi
2:00 AM11 °FSnow flurries. Overcast.2 mph71%29.56 "Hg25 mi
1:00 AM10 °FSnow flurries. Overcast.7 mph71%29.55 "Hg31 mi
12:00 AM10 °FOvercast.8 mph71%29.54 "Hg28 mi
11:00 PM
Thu, Oct 20
9 °FOvercast.14 mph72%29.50 "Hg31 mi
10:00 PM7 °FPassing clouds.12 mph75%29.50 "Hg31 mi
9:00 PM8 °FSnow flurries. Low clouds.14 mph78%29.47 "Hg31 mi
8:00 PM7 °FLight snow. Low clouds.17 mph81%29.47 "Hg11 mi
7:00 PM11 °FLight snow. Overcast.16 mph77%29.44 "Hg4 mi
6:00 PM12 °FLight snow. Overcast.16 mph76%29.44 "Hg3 mi
5:00 PM11 °FLight snow. Low clouds.22 mph82%29.44 "Hg1 mi
4:00 PM12 °FLight snow. Overcast.16 mph80%29.44 "Hg2 mi
3:00 PM15 °FLight snow. Overcast.7 mph78%29.47 "Hg1 mi
2:00 PM13 °FSnow. Overcast.26 mph77%29.50 "Hg0 mi
1:00 PM13 °FLight snow. Overcast.28 mph77%29.55 "Hg1 mi
Weather by CustomWeather, © 2016

See weather overviewHow to use our weather pages